GLD352 SBBW-SWEK

Flight info

Callsign GLD352
Flight time 1h 5m
Altitude 4500
Route DCT N0120A045 SWWL 1520S05212W 1453S05215W 1434S05217W 1412S05214W 1356S05211W DCT
Aircraft C182/M-SDFGIRY/S

Departure

Time 2026-05-06 00:16
Airport Barra do Garças Airport (SBBW)

Arrival

Time 2026-05-06 01:21
Airport Canarana Airport (SWEK)
Time Latitude Longitude Altitude Speed Heading
2026-05-06 00:09 -15.85900 -52.38919 1189 ft 0 kts 230°
2026-05-06 00:12 -15.85902 -52.38921 1189 ft 2 kts 221°
2026-05-06 00:12 -15.85946 -52.38907 1188 ft 10 kts 194°
2026-05-06 00:12 -15.86001 -52.38956 1187 ft 12 kts 228°
2026-05-06 00:13 -15.86064 -52.39032 1179 ft 16 kts 230°
2026-05-06 00:13 -15.86134 -52.39123 1180 ft 15 kts 230°
2026-05-06 00:13 -15.86198 -52.39209 1178 ft 15 kts 225°
2026-05-06 00:13 -15.86257 -52.39226 1179 ft 14 kts 150°
2026-05-06 00:14 -15.86296 -52.39197 1177 ft 0 kts 140°
2026-05-06 00:14 -15.86299 -52.39194 1177 ft 4 kts 140°
2026-05-06 00:14 -15.86288 -52.39090 1177 ft 34 kts 50°
2026-05-06 00:14 -15.86027 -52.38771 1186 ft 76 kts 50°
2026-05-06 00:15 -15.85686 -52.38287 1421 ft 84 kts 59°
2026-05-06 00:15 -15.85468 -52.37642 1599 ft 103 kts 77°
2026-05-06 00:15 -15.84958 -52.37047 1682 ft 122 kts 30°
2026-05-06 00:15 -15.84437 -52.36729 1695 ft 135 kts 31°
2026-05-06 00:16 -15.83652 -52.36224 1946 ft 131 kts 32°
2026-05-06 00:16 -15.82859 -52.35719 2154 ft 131 kts 32°
2026-05-06 00:16 -15.82085 -52.35240 2356 ft 133 kts 32°
2026-05-06 00:16 -15.81274 -52.34753 2472 ft 136 kts 32°
2026-05-06 00:17 -15.80447 -52.34265 2602 ft 138 kts 32°
2026-05-06 00:17 -15.79602 -52.33782 2740 ft 140 kts 32°
2026-05-06 00:17 -15.78737 -52.33298 2888 ft 144 kts 32°
2026-05-06 00:17 -15.77838 -52.32796 3001 ft 150 kts 32°
2026-05-06 00:18 -15.76900 -52.32282 3114 ft 155 kts 31°
2026-05-06 00:18 -15.75942 -52.31758 3221 ft 156 kts 31°
2026-05-06 00:18 -15.74983 -52.31233 3314 ft 154 kts 32°
2026-05-06 00:18 -15.74037 -52.30716 3413 ft 153 kts 32°
2026-05-06 00:19 -15.73085 -52.30198 3509 ft 156 kts 31°
2026-05-06 00:19 -15.72126 -52.29676 3601 ft 155 kts 31°
2026-05-06 00:19 -15.71180 -52.29162 3685 ft 152 kts 32°
2026-05-06 00:19 -15.70234 -52.28649 3783 ft 155 kts 31°
2026-05-06 00:20 -15.69275 -52.28129 3878 ft 157 kts 32°
2026-05-06 00:20 -15.68298 -52.27613 3971 ft 157 kts 30°
2026-05-06 00:20 -15.67252 -52.27229 4067 ft 161 kts 21°
2026-05-06 00:20 -15.66172 -52.26883 4154 ft 161 kts 21°
2026-05-06 00:21 -15.65107 -52.26543 4257 ft 161 kts 21°
2026-05-06 00:21 -15.64033 -52.26198 4355 ft 162 kts 21°
2026-05-06 00:21 -15.62960 -52.25853 4444 ft 161 kts 21°
2026-05-06 00:21 -15.61886 -52.25507 4497 ft 164 kts 21°
2026-05-06 00:22 -15.60787 -52.25151 4507 ft 167 kts 21°
2026-05-06 00:22 -15.59664 -52.24784 4510 ft 170 kts 21°
2026-05-06 00:22 -15.58519 -52.24443 4508 ft 172 kts 18°
2026-05-06 00:22 -15.57363 -52.24126 4505 ft 172 kts 18°
2026-05-06 00:23 -15.56201 -52.23807 4502 ft 173 kts 19°
2026-05-06 00:23 -15.55040 -52.23490 4504 ft 173 kts 18°
2026-05-06 00:23 -15.53868 -52.23170 4504 ft 174 kts 19°
2026-05-06 00:23 -15.52696 -52.22852 4503 ft 175 kts 18°
2026-05-06 00:24 -15.51519 -52.22531 4498 ft 174 kts 18°
2026-05-06 00:24 -15.50356 -52.22216 4497 ft 172 kts 18°
2026-05-06 00:24 -15.49200 -52.21907 4493 ft 171 kts 18°
2026-05-06 00:24 -15.48044 -52.21596 4499 ft 173 kts 18°
2026-05-06 00:25 -15.46871 -52.21278 4500 ft 175 kts 18°
2026-05-06 00:25 -15.45694 -52.20959 4501 ft 175 kts 18°
2026-05-06 00:25 -15.44516 -52.20642 4503 ft 175 kts 18°
2026-05-06 00:25 -15.43337 -52.20324 4504 ft 175 kts 18°
2026-05-06 00:26 -15.42161 -52.20006 4498 ft 175 kts 18°
2026-05-06 00:26 -15.40988 -52.19689 4497 ft 175 kts 18°
2026-05-06 00:26 -15.39812 -52.19373 4493 ft 174 kts 18°
2026-05-06 00:26 -15.38639 -52.19055 4498 ft 175 kts 18°
2026-05-06 00:27 -15.37461 -52.18737 4487 ft 173 kts 18°
2026-05-06 00:27 -15.36281 -52.18500 4492 ft 174 kts 12°
2026-05-06 00:27 -15.35076 -52.18316 4491 ft 176 kts 10°
2026-05-06 00:27 -15.33857 -52.18235 4491 ft 176 kts
2026-05-06 00:28 -15.32621 -52.18263 4487 ft 178 kts 359°
2026-05-06 00:28 -15.31392 -52.18368 4483 ft 177 kts 359°
2026-05-06 00:28 -15.30198 -52.18475 4490 ft 173 kts 358°
2026-05-06 00:28 -15.28972 -52.18606 4485 ft 175 kts 356°
2026-05-06 00:29 -15.27771 -52.18772 4483 ft 174 kts 355°
2026-05-06 00:29 -15.26569 -52.18938 4494 ft 176 kts 355°
2026-05-06 00:29 -15.25367 -52.19102 4496 ft 177 kts 355°
2026-05-06 00:29 -15.24151 -52.19267 4500 ft 177 kts 355°
2026-05-06 00:30 -15.22917 -52.19436 4501 ft 181 kts 355°
2026-05-06 00:30 -15.21663 -52.19606 4502 ft 182 kts 355°
2026-05-06 00:30 -15.20412 -52.19776 4497 ft 181 kts 355°
2026-05-06 00:30 -15.19167 -52.19944 4491 ft 180 kts 355°
2026-05-06 00:31 -15.17939 -52.20108 4490 ft 176 kts 355°
2026-05-06 00:31 -15.16717 -52.20272 4492 ft 178 kts 355°
2026-05-06 00:31 -15.15489 -52.20440 4493 ft 179 kts 355°
2026-05-06 00:31 -15.14248 -52.20610 4494 ft 180 kts 355°
2026-05-06 00:32 -15.13005 -52.20779 4496 ft 181 kts 355°
2026-05-06 00:32 -15.11758 -52.20947 4496 ft 180 kts 355°
2026-05-06 00:32 -15.10517 -52.21115 4490 ft 179 kts 355°
2026-05-06 00:32 -15.09290 -52.21284 4488 ft 178 kts 355°
2026-05-06 00:33 -15.08068 -52.21452 4484 ft 176 kts 355°
2026-05-06 00:33 -15.06853 -52.21619 4486 ft 177 kts 355°
2026-05-06 00:33 -15.05633 -52.21787 4488 ft 178 kts 355°
2026-05-06 00:33 -15.04405 -52.21956 4488 ft 178 kts 355°
2026-05-06 00:34 -15.03179 -52.22126 4482 ft 177 kts 355°
2026-05-06 00:34 -15.01960 -52.22294 4481 ft 176 kts 355°
2026-05-06 00:34 -15.00739 -52.22463 4488 ft 179 kts 355°
2026-05-06 00:34 -14.99512 -52.22632 4478 ft 176 kts 355°
2026-05-06 00:35 -14.98309 -52.22798 4477 ft 174 kts 355°
2026-05-06 00:35 -14.97097 -52.22965 4480 ft 177 kts 355°
2026-05-06 00:35 -14.95860 -52.23135 4476 ft 177 kts 355°
2026-05-06 00:35 -14.94640 -52.23303 4480 ft 177 kts 355°
2026-05-06 00:36 -14.93417 -52.23473 4485 ft 177 kts 355°
2026-05-06 00:36 -14.92194 -52.23642 4484 ft 177 kts 355°
2026-05-06 00:36 -14.90971 -52.23811 4482 ft 178 kts 355°
2026-05-06 00:36 -14.89742 -52.23980 4482 ft 177 kts 355°
2026-05-06 00:37 -14.88524 -52.24150 4477 ft 176 kts 355°
2026-05-06 00:37 -14.87308 -52.24318 4478 ft 177 kts 355°
2026-05-06 00:37 -14.86085 -52.24487 4483 ft 178 kts 355°
2026-05-06 00:37 -14.84853 -52.24658 4483 ft 179 kts 355°
2026-05-06 00:38 -14.83619 -52.24831 4488 ft 180 kts 355°
2026-05-06 00:38 -14.82382 -52.25003 4485 ft 178 kts 355°
2026-05-06 00:38 -14.81159 -52.25171 4487 ft 177 kts 355°
2026-05-06 00:38 -14.79931 -52.25339 4483 ft 178 kts 355°
2026-05-06 00:39 -14.78704 -52.25511 4490 ft 179 kts 355°
2026-05-06 00:39 -14.77459 -52.25685 4483 ft 181 kts 355°
2026-05-06 00:39 -14.76220 -52.25857 4477 ft 178 kts 355°
2026-05-06 00:39 -14.74990 -52.26024 4481 ft 179 kts 355°
2026-05-06 00:40 -14.73769 -52.26191 4479 ft 179 kts 355°
2026-05-06 00:40 -14.72547 -52.26358 4474 ft 175 kts 355°
2026-05-06 00:40 -14.71333 -52.26525 4478 ft 177 kts 355°
2026-05-06 00:40 -14.70111 -52.26692 4476 ft 177 kts 355°
2026-05-06 00:41 -14.68893 -52.26859 4473 ft 176 kts 355°
2026-05-06 00:41 -14.67677 -52.27025 4475 ft 177 kts 355°
2026-05-06 00:41 -14.66453 -52.27191 4473 ft 178 kts 355°
2026-05-06 00:41 -14.65234 -52.27358 4477 ft 176 kts 355°
2026-05-06 00:42 -14.64017 -52.27524 4479 ft 177 kts 355°
2026-05-06 00:42 -14.62791 -52.27690 4482 ft 179 kts 355°
2026-05-06 00:42 -14.61556 -52.27859 4476 ft 178 kts 355°
2026-05-06 00:42 -14.60341 -52.28026 4485 ft 175 kts 355°
2026-05-06 00:43 -14.59121 -52.28192 4485 ft 179 kts 356°
2026-05-06 00:43 -14.57889 -52.28363 4481 ft 178 kts 355°
2026-05-06 00:43 -14.56658 -52.28536 4486 ft 180 kts 355°
2026-05-06 00:43 -14.55417 -52.28718 4477 ft 179 kts 355°
2026-05-06 00:44 -14.54199 -52.28900 4479 ft 176 kts 355°
2026-05-06 00:44 -14.52990 -52.29077 4476 ft 175 kts 355°
2026-05-06 00:44 -14.51785 -52.29254 4470 ft 174 kts 355°
2026-05-06 00:44 -14.50583 -52.29432 4474 ft 174 kts 355°
2026-05-06 00:45 -14.49377 -52.29610 4478 ft 176 kts 355°
2026-05-06 00:45 -14.48163 -52.29790 4479 ft 176 kts 355°
2026-05-06 00:45 -14.46947 -52.29969 4481 ft 177 kts 355°
2026-05-06 00:45 -14.45725 -52.30149 4479 ft 177 kts 355°
2026-05-06 00:46 -14.44504 -52.30327 4477 ft 177 kts 355°
2026-05-06 00:46 -14.43278 -52.30506 4483 ft 179 kts 355°
2026-05-06 00:46 -14.42050 -52.30684 4479 ft 177 kts 355°
2026-05-06 00:46 -14.40830 -52.30860 4483 ft 177 kts 356°
2026-05-06 00:47 -14.39598 -52.30973 4483 ft 179 kts 359°
2026-05-06 00:47 -14.38368 -52.31069 4478 ft 176 kts 359°
2026-05-06 00:47 -14.37145 -52.31163 4481 ft 177 kts 359°
2026-05-06 00:47 -14.35911 -52.31257 4482 ft 178 kts 359°
2026-05-06 00:48 -14.34694 -52.31352 4485 ft 178 kts 359°
2026-05-06 00:48 -14.33454 -52.31447 4476 ft 178 kts 359°
2026-05-06 00:48 -14.32220 -52.31542 4479 ft 179 kts 359°
2026-05-06 00:48 -14.30978 -52.31637 4479 ft 179 kts 359°
2026-05-06 00:49 -14.29730 -52.31733 4481 ft 180 kts 359°
2026-05-06 00:49 -14.28483 -52.31828 4479 ft 179 kts 359°
2026-05-06 00:49 -14.27238 -52.31923 4476 ft 178 kts 359°
2026-05-06 00:49 -14.26004 -52.32019 4482 ft 178 kts 359°
2026-05-06 00:50 -14.24757 -52.32112 4475 ft 179 kts
2026-05-06 00:50 -14.23530 -52.32083 4474 ft 175 kts
2026-05-06 00:50 -14.22306 -52.32005 4474 ft 178 kts
2026-05-06 00:50 -14.21070 -52.31928 4473 ft 177 kts
2026-05-06 00:51 -14.19852 -52.31857 4472 ft 175 kts
2026-05-06 00:51 -14.18634 -52.31789 4479 ft 177 kts
2026-05-06 00:51 -14.17400 -52.31720 4478 ft 177 kts
2026-05-06 00:51 -14.16167 -52.31651 4481 ft 178 kts
2026-05-06 00:52 -14.14928 -52.31583 4477 ft 178 kts
2026-05-06 00:52 -14.13703 -52.31518 4465 ft 174 kts
2026-05-06 00:52 -14.12500 -52.31455 4472 ft 173 kts
2026-05-06 00:52 -14.11292 -52.31390 4468 ft 173 kts
2026-05-06 00:53 -14.10074 -52.31329 4474 ft 173 kts
2026-05-06 00:53 -14.08870 -52.31269 4467 ft 174 kts
2026-05-06 00:53 -14.07646 -52.31208 4476 ft 174 kts
2026-05-06 00:53 -14.06433 -52.31144 4477 ft 175 kts
2026-05-06 00:54 -14.05227 -52.31079 4482 ft 177 kts
2026-05-06 00:54 -14.03989 -52.31012 4482 ft 178 kts
2026-05-06 00:54 -14.02740 -52.30943 4486 ft 176 kts
2026-05-06 00:54 -14.01536 -52.30876 4472 ft 174 kts
2026-05-06 00:55 -14.00329 -52.30811 4475 ft 174 kts
2026-05-06 00:55 -13.99110 -52.30746 4471 ft 175 kts
2026-05-06 00:55 -13.97905 -52.30679 4468 ft 171 kts
2026-05-06 00:55 -13.96720 -52.30613 4475 ft 171 kts
2026-05-06 00:56 -13.95510 -52.30551 4480 ft 176 kts
2026-05-06 00:56 -13.94289 -52.30485 4476 ft 175 kts
2026-05-06 00:56 -13.93072 -52.30414 4482 ft 176 kts
2026-05-06 00:56 -13.91855 -52.30348 4484 ft 175 kts
2026-05-06 00:57 -13.91032 -52.30305 4482 ft 176 kts
2026-05-06 00:57 -13.89810 -52.30242 4476 ft 175 kts
2026-05-06 00:57 -13.88601 -52.30181 4478 ft 174 kts
2026-05-06 00:57 -13.87390 -52.30119 4479 ft 174 kts
2026-05-06 00:58 -13.86174 -52.30057 4482 ft 176 kts
2026-05-06 00:58 -13.84953 -52.29992 4481 ft 175 kts
2026-05-06 00:58 -13.83735 -52.29931 4480 ft 176 kts
2026-05-06 00:58 -13.82535 -52.29872 4379 ft 165 kts
2026-05-06 00:59 -13.81452 -52.29827 4210 ft 149 kts
2026-05-06 00:59 -13.80449 -52.29791 4022 ft 138 kts
2026-05-06 00:59 -13.79518 -52.29764 3852 ft 132 kts
2026-05-06 00:59 -13.78629 -52.29740 3662 ft 121 kts
2026-05-06 01:00 -13.77815 -52.29723 3475 ft 115 kts
2026-05-06 01:00 -13.77025 -52.29711 3271 ft 112 kts
2026-05-06 01:00 -13.76247 -52.29705 3064 ft 112 kts
2026-05-06 01:00 -13.75477 -52.29699 2796 ft 109 kts
2026-05-06 01:01 -13.74718 -52.29692 2465 ft 109 kts
2026-05-06 01:01 -13.73950 -52.29675 2127 ft 110 kts
2026-05-06 01:01 -13.73210 -52.29643 1871 ft 105 kts
2026-05-06 01:01 -13.72475 -52.29582 1597 ft 108 kts
2026-05-06 01:02 -13.71735 -52.29498 1606 ft 103 kts
2026-05-06 01:02 -13.71038 -52.29414 1665 ft 99 kts
2026-05-06 01:02 -13.70350 -52.29338 1673 ft 101 kts
2026-05-06 01:02 -13.69654 -52.29258 1696 ft 100 kts
2026-05-06 01:03 -13.68962 -52.29181 1704 ft 101 kts
2026-05-06 01:03 -13.68265 -52.29105 1732 ft 100 kts
2026-05-06 01:03 -13.67575 -52.29023 1750 ft 99 kts 14°
2026-05-06 01:03 -13.66995 -52.28606 1696 ft 102 kts 40°
2026-05-06 01:04 -13.66389 -52.28272 1725 ft 100 kts 19°
2026-05-06 01:04 -13.65722 -52.28062 1731 ft 101 kts 10°
2026-05-06 01:04 -13.65029 -52.27971 1741 ft 100 kts
2026-05-06 01:04 -13.64330 -52.27878 1768 ft 100 kts
2026-05-06 01:05 -13.63640 -52.27785 1790 ft 100 kts
2026-05-06 01:05 -13.62954 -52.27698 1815 ft 101 kts
2026-05-06 01:05 -13.62249 -52.27616 1836 ft 102 kts
2026-05-06 01:05 -13.61544 -52.27533 1882 ft 101 kts
2026-05-06 01:06 -13.60847 -52.27459 1917 ft 101 kts
2026-05-06 01:06 -13.60144 -52.27382 1930 ft 102 kts
2026-05-06 01:06 -13.59438 -52.27303 1963 ft 102 kts
2026-05-06 01:06 -13.58733 -52.27226 1960 ft 103 kts
2026-05-06 01:07 -13.58034 -52.27095 1925 ft 105 kts
2026-05-06 01:07 -13.57305 -52.27294 1884 ft 107 kts 345°
2026-05-06 01:07 -13.56605 -52.27501 1934 ft 102 kts 345°
2026-05-06 01:07 -13.55918 -52.27710 1913 ft 105 kts 345°
2026-05-06 01:08 -13.55239 -52.27915 1989 ft 98 kts 346°
2026-05-06 01:08 -13.54585 -52.28135 2030 ft 99 kts 348°
2026-05-06 01:08 -13.54172 -52.27802 1918 ft 90 kts 95°
2026-05-06 01:08 -13.54588 -52.27447 1777 ft 87 kts 181°
2026-05-06 01:09 -13.55160 -52.27490 1660 ft 82 kts 176°
2026-05-06 01:09 -13.55708 -52.27412 1553 ft 82 kts 169°
2026-05-06 01:09 -13.56281 -52.27267 1472 ft 83 kts 162°
2026-05-06 01:09 -13.56813 -52.27103 1371 ft 79 kts 160°
2026-05-06 01:10 -13.57266 -52.26946 1310 ft 56 kts 159°
2026-05-06 01:10 -13.57648 -52.26823 1318 ft 71 kts 161°
2026-05-06 01:10 -13.58126 -52.26626 1454 ft 79 kts 117°
2026-05-06 01:10 -13.57986 -52.26073 1583 ft 97 kts 39°
2026-05-06 01:11 -13.57311 -52.26040 1791 ft 108 kts 350°
2026-05-06 01:11 -13.56584 -52.26263 2005 ft 120 kts 345°
2026-05-06 01:11 -13.55694 -52.26522 2091 ft 142 kts 352°
2026-05-06 01:11 -13.54692 -52.26754 2184 ft 158 kts 349°
2026-05-06 01:12 -13.53683 -52.27212 2283 ft 158 kts 319°
2026-05-06 01:12 -13.53496 -52.28259 2268 ft 162 kts 241°
2026-05-06 01:12 -13.54421 -52.28605 2095 ft 148 kts 155°
2026-05-06 01:12 -13.54825 -52.27781 1866 ft 124 kts 91°
2026-05-06 01:13 -13.54656 -52.27029 1671 ft 101 kts 95°
2026-05-06 01:13 -13.54916 -52.26328 1765 ft 108 kts 116°
2026-05-06 01:13 -13.55502 -52.25895 1777 ft 109 kts 168°
2026-05-06 01:13 -13.55962 -52.25518 1728 ft 82 kts 106°
2026-05-06 01:14 -13.55152 -52.24727 1528 ft 88 kts 26°
2026-05-06 01:14 -13.54595 -52.24516 1506 ft 91 kts 23°
2026-05-06 01:14 -13.54387 -52.24033 1544 ft 82 kts 114°
2026-05-06 01:15 -13.54456 -52.23493 1596 ft 76 kts 90°
2026-05-06 01:15 -13.54546 -52.22913 1637 ft 84 kts 105°
2026-05-06 01:15 -13.54983 -52.22432 1711 ft 103 kts 139°
2026-05-06 01:15 -13.55429 -52.21805 1810 ft 120 kts 102°
2026-05-06 01:16 -13.55137 -52.20982 1911 ft 134 kts 48°
2026-05-06 01:16 -13.54226 -52.20714 2002 ft 149 kts 353°
2026-05-06 01:16 -13.53277 -52.21171 2123 ft 151 kts 334°
2026-05-06 01:16 -13.52502 -52.21871 2189 ft 154 kts 298°
2026-05-06 01:17 -13.52480 -52.22940 2251 ft 153 kts 250°
2026-05-06 01:17 -13.53130 -52.23763 2271 ft 152 kts 205°
2026-05-06 01:17 -13.54156 -52.23801 2283 ft 147 kts 161°
2026-05-06 01:17 -13.55112 -52.23440 2305 ft 146 kts 159°
2026-05-06 01:18 -13.56076 -52.23077 2307 ft 149 kts 159°
2026-05-06 01:18 -13.57088 -52.22894 2308 ft 154 kts 188°
2026-05-06 01:18 -13.57951 -52.23552 2312 ft 165 kts 237°
2026-05-06 01:18 -13.58101 -52.24716 2315 ft 168 kts 278°
2026-05-06 01:19 -13.57889 -52.25903 2310 ft 167 kts 281°
2026-05-06 01:19 -13.57265 -52.26880 2310 ft 167 kts 328°
2026-05-06 01:19 -13.56166 -52.27106 2312 ft 162 kts 11°
2026-05-06 01:19 -13.55037 -52.27043 2301 ft 164 kts
2026-05-06 01:20 -13.53894 -52.27185 2298 ft 166 kts 356°
2026-05-06 01:20 -13.52793 -52.27348 2288 ft 152 kts 357°
2026-05-06 01:20 -13.51794 -52.27507 2284 ft 136 kts 357°
2026-05-06 01:20 -13.51074 -52.27965 2024 ft 124 kts 302°
2026-05-06 01:21 -13.51076 -52.28776 1624 ft 114 kts 237°
2026-05-06 01:21 -13.51684 -52.29066 1531 ft 88 kts 183°
2026-05-06 01:21 -13.51994 -52.28965 1500 ft 42 kts 276°
2026-05-06 01:21 -13.51539 -52.29430 2040 ft 151 kts 347°
2026-05-06 01:22 -13.50587 -52.29888 2163 ft 161 kts 313°
2026-05-06 01:22 -13.50493 -52.30965 2284 ft 165 kts 247°
2026-05-06 01:22 -13.50936 -52.32093 2230 ft 169 kts 224°
2026-05-06 01:22 -13.51882 -52.32173 2481 ft 129 kts 139°
2026-05-06 01:23 -13.52106 -52.31283 2354 ft 150 kts 89°
2026-05-06 01:23 -13.52258 -52.30223 2261 ft 156 kts 114°
2026-05-06 01:23 -13.52737 -52.29358 2043 ft 121 kts 105°
2026-05-06 01:23 -13.52806 -52.28565 1773 ft 107 kts 93°
2026-05-06 01:24 -13.52999 -52.27818 1777 ft 110 kts 127°
2026-05-06 01:24 -13.53646 -52.27520 1897 ft 104 kts 184°
2026-05-06 01:24 -13.54370 -52.27566 1964 ft 106 kts 179°
2026-05-06 01:24 -13.55170 -52.27576 1834 ft 112 kts 181°
2026-05-06 01:25 -13.55847 -52.27457 1682 ft 87 kts 163°
2026-05-06 01:25 -13.56439 -52.27248 1524 ft 96 kts 159°
2026-05-06 01:25 -13.57061 -52.27021 1344 ft 86 kts 159°
2026-05-06 01:25 -13.57520 -52.26851 1312 ft 55 kts 158°